Regional Weather Roundup
Issued by NWS

Home | Current Version | Previous Version | Text Only | Print | Product List | Glossary On
Versions: 1 2 3 4 5 6 7 8 9 10 11 12 13 14 15 16 17 18 19 20 21 22 23 24 25 26 27 28 29 30 31 32 33 34 35 36 37 38 39 40 41 42 43 44 45 46 47 48 49 50
000
ASUS43 KLSX 290907
RWRMO

WEATHER SUMMARY FOR MISSOURI
NATIONAL WEATHER SERVICE SPRINGFIELD MO
400 AM CDT WED JUL 29 2015

NOTE: "FAIR" INDICATES FEW OR NO CLOUDS BELOW 12,000 FEET WITH NO
       SIGNIFICANT WEATHER AND/OR OBSTRUCTIONS TO VISIBILITY.
       CURRENT SKY AND/OR WEATHER CONDITIONS ARE NOT AVAILABLE FOR
       CHILLICOTHE AND FARMINGTON.

MOZ001>031-035>038-043-044-053-054-291000-
...NORTHERN AND WESTERN MISSOURI...

CITY           SKY/WX    TMP DP  RH WIND       PRES   REMARKS
KANSAS CTY INT TSTM      71  69  93 E15       30.05F FOG
KANSAS C DTWN  TSTM      73  70  90 E9        30.05F
LEE`S SUMMIT   HVY RAIN  72  69  90 NE10      30.09R FOG
ST JOSEPH      LGT RAIN  72  71  97 S5        30.04S
CHILLICOTHE      N/A     72  71  97 CALM      30.07R
KIRKSVILLE     TSTM      71  68  90 S12G17    30.07R

$$
MOZ066>068-077>081-088>096-101>105-291000-
...SOUTHWEST MISSOURI...

CITY           SKY/WX    TMP DP  RH WIND       PRES   REMARKS
SPRINGFIELD    CLEAR     76  72  87 SW5       30.02R
JOPLIN         CLEAR     76  73  91 S6        30.00S

$$
MOZ032>034-039>042-045>050-055>058-069>072-291000-
...CENTRAL MISSOURI...

CITY           SKY/WX    TMP DP  RH WIND       PRES   REMARKS
COLUMBIA       PTCLDY    78  75  90 NW14      30.02R
JEFFERSON CITY CLEAR     78  75  90 CALM      29.99R
ROLLA          CLEAR     76  74  93 SW8       30.01R
SEDALIA        CLOUDY    76  68  76 N16G28    30.07R
WHITEMAN AFB   PTCLDY    75  69  81 N18       30.06R
WARRENSBURG    RAIN      72  68  88 NW10G20   30.10R
OSAGE BEACH    CLEAR     75  73  94 CALM      30.01R

$$
MOZ051-052-059>065-291000-
...EAST CENTRAL MISSOURI...

CITY           SKY/WX    TMP DP  RH WIND       PRES   REMARKS
ST LOUIS INTL  PTCLDY    84  76  76 SW6       29.97R HX  93
SPIRIT OF STL  PTCLDY    79  78  97 SW3       29.96R
ST CHARLES     PTCLDY    78  78 100 CALM      29.95R FOG

$$
MOZ072>076-082>087-097>100-106>115-291000-
...SOUTH CENTRAL AND SOUTHEAST MISSOURI...

CITY           SKY/WX    TMP DP  RH WIND       PRES   REMARKS
CAPE GIRARDEAU PTCLDY    77  75  93 CALM      29.96R
FARMINGTON     PTCLDY    75  73  94 CALM      30.04R
POPLAR BLUFF   CLEAR     79  78  97 CALM      29.95S FOG
WEST PLAINS    CLEAR     78  73  84 W3        30.03R

$$



USA.gov is the U.S. government's official web portal to all federal, state and local government web resources and services.